User: anonymous   Login
Location: Caltech
(34.1382°N, 118.1253°W)
Time: 21:42:46
(UTC-08:00)
Language:

KITSAT 1 - Orbit

View from above orbital plane
View from above orbital plane
View from above satellite
View from above satellite

Ground track
Ground track

The orbit data is extracted from the following two-line orbital elements,

1 22077U 92052B   16039.41419872 -.00000037  00000-0  10071-3 0  9994
2 22077  66.0847 282.9356 0015295 258.9393 151.6142 12.86511127103746
Epoch (UTC): 08 February 2016 09:56:26
Eccentricity: 0.0015295
inclination: 66.0847°
perigee height: 1303 km
apogee height: 1327 km
right ascension of ascending node: 282.9356°
argument of perigee: 258.9393°
revolutions per day: 12.86511127
mean anomaly at epoch: 151.6142°
orbit number at epoch: 10374

The dashed part of the orbit path shows where the satellite is in the earth's shadow,  

DLR